FWV98 LYTV-LGSK

Flight info

Callsign FWV98
Flight time 0h 53m
Altitude 33000
Route LASTI DCT PETAK DCT DOBAR DCT TALAS UN130 TSL
Aircraft A320/M-SDE3FGHIRWY/LB1

Departure

Time 2026-05-06 17:42
Airport Tivat Airport (LYTV)

Arrival

Time 2026-05-06 18:35
Airport Skiathos Island National Airport (LGSK)
Time Latitude Longitude Altitude Speed Heading
2026-05-06 17:30 42.41157 18.71750 24 ft 0 kts 148°
2026-05-06 17:38 42.41138 18.71747 27 ft 4 kts 219°
2026-05-06 17:38 42.41156 18.71702 26 ft 15 kts 308°
2026-05-06 17:39 42.41233 18.71607 26 ft 12 kts 319°
2026-05-06 17:39 42.41296 18.71533 24 ft 13 kts 319°
2026-05-06 17:39 42.41352 18.71450 25 ft 11 kts 284°
2026-05-06 17:39 42.41313 18.71368 22 ft 11 kts 199°
2026-05-06 17:40 42.41247 18.71408 22 ft 7 kts 137°
2026-05-06 17:40 42.41246 18.71409 22 ft 0 kts 137°
2026-05-06 17:41 42.41243 18.71413 22 ft 4 kts 137°
2026-05-06 17:41 42.41043 18.71648 24 ft 75 kts 139°
2026-05-06 17:41 42.40506 18.72284 24 ft 130 kts 139°
2026-05-06 17:41 42.39733 18.73180 270 ft 155 kts 141°
2026-05-06 17:42 42.38770 18.73864 870 ft 157 kts 163°
2026-05-06 17:42 42.37721 18.74234 1585 ft 155 kts 165°
2026-05-06 17:42 42.36698 18.74666 2230 ft 156 kts 159°
2026-05-06 17:42 42.35610 18.75211 2572 ft 178 kts 158°
2026-05-06 17:43 42.34358 18.75835 2981 ft 204 kts 158°
2026-05-06 17:43 42.32943 18.76513 3453 ft 228 kts 160°
2026-05-06 17:43 42.31377 18.77225 4120 ft 243 kts 161°
2026-05-06 17:43 42.29743 18.77935 4984 ft 250 kts 163°
2026-05-06 17:44 42.28062 18.78644 5841 ft 258 kts 165°
2026-05-06 17:44 42.26327 18.79369 6680 ft 264 kts 162°
2026-05-06 17:44 42.24586 18.80328 7416 ft 273 kts 159°
2026-05-06 17:44 42.22820 18.81329 8275 ft 278 kts 160°
2026-05-06 17:45 42.21026 18.82340 9144 ft 282 kts 160°
2026-05-06 17:45 42.19198 18.83365 10009 ft 286 kts 160°
2026-05-06 17:45 42.17347 18.84403 10783 ft 290 kts 160°
2026-05-06 17:45 42.15471 18.85455 11573 ft 294 kts 160°
2026-05-06 17:46 42.13572 18.86523 12369 ft 297 kts 160°
2026-05-06 17:46 42.11657 18.87604 13152 ft 301 kts 160°
2026-05-06 17:46 42.09808 18.88995 13906 ft 309 kts 147°
2026-05-06 17:46 42.08126 18.90980 14135 ft 334 kts 138°
2026-05-06 17:47 42.06415 18.93241 14284 ft 356 kts 138°
2026-05-06 17:47 42.04621 18.95635 14686 ft 367 kts 138°
2026-05-06 17:47 42.02799 18.98076 15273 ft 373 kts 138°
2026-05-06 17:47 42.00946 19.00550 15855 ft 378 kts 138°
2026-05-06 17:48 41.99064 19.03048 16489 ft 382 kts 138°
2026-05-06 17:48 41.97163 19.05569 17091 ft 387 kts 138°
2026-05-06 17:48 41.95235 19.08116 17693 ft 391 kts 139°
2026-05-06 17:48 41.93287 19.10692 18284 ft 395 kts 139°
2026-05-06 17:49 41.91311 19.13290 18805 ft 399 kts 139°
2026-05-06 17:49 41.89316 19.15911 19307 ft 403 kts 138°
2026-05-06 17:49 41.87303 19.18560 19804 ft 407 kts 138°
2026-05-06 17:49 41.85271 19.21225 20297 ft 411 kts 139°
2026-05-06 17:50 41.83215 19.23921 20784 ft 415 kts 138°
2026-05-06 17:50 41.81142 19.26647 21275 ft 419 kts 138°
2026-05-06 17:50 41.79071 19.29403 21742 ft 424 kts 135°
2026-05-06 17:50 41.77237 19.32534 22196 ft 431 kts 125°
2026-05-06 17:51 41.75800 19.36081 22641 ft 436 kts 117°
2026-05-06 17:51 41.74473 19.39751 23092 ft 440 kts 117°
2026-05-06 17:51 41.73120 19.43446 23549 ft 444 kts 118°
2026-05-06 17:51 41.71744 19.47161 23941 ft 447 kts 118°
2026-05-06 17:52 41.70825 19.49629 24201 ft 449 kts 118°
2026-05-06 17:52 41.69431 19.53376 24588 ft 451 kts 118°
2026-05-06 17:52 41.68027 19.57151 24961 ft 454 kts 118°
2026-05-06 17:52 41.66617 19.60950 25328 ft 457 kts 118°
2026-05-06 17:53 41.65195 19.64775 25682 ft 460 kts 118°
2026-05-06 17:53 41.63766 19.68610 26040 ft 463 kts 118°
2026-05-06 17:53 41.62325 19.72481 26390 ft 466 kts 117°
2026-05-06 17:53 41.60881 19.76364 26749 ft 469 kts 117°
2026-05-06 17:54 41.59423 19.80288 27088 ft 472 kts 117°
2026-05-06 17:54 41.57958 19.84222 27467 ft 475 kts 117°
2026-05-06 17:54 41.56478 19.88180 27814 ft 477 kts 118°
2026-05-06 17:54 41.54986 19.92153 28152 ft 480 kts 117°
2026-05-06 17:55 41.53482 19.96148 28481 ft 483 kts 118°
2026-05-06 17:55 41.51971 20.00162 28798 ft 486 kts 118°
2026-05-06 17:55 41.50449 20.04209 29091 ft 489 kts 117°
2026-05-06 17:55 41.48919 20.08271 29386 ft 491 kts 117°
2026-05-06 17:56 41.47380 20.12348 29682 ft 494 kts 117°
2026-05-06 17:56 41.45835 20.16442 30020 ft 496 kts 117°
2026-05-06 17:56 41.44281 20.20560 30301 ft 498 kts 118°
2026-05-06 17:56 41.42722 20.24683 30547 ft 499 kts 117°
2026-05-06 17:57 41.41157 20.28819 30823 ft 500 kts 117°
2026-05-06 17:57 41.39587 20.32954 31180 ft 499 kts 117°
2026-05-06 17:57 41.38014 20.37073 31498 ft 499 kts 117°
2026-05-06 17:57 41.36440 20.41185 31829 ft 498 kts 117°
2026-05-06 17:58 41.34874 20.45285 32167 ft 498 kts 117°
2026-05-06 17:58 41.33467 20.49501 32514 ft 497 kts 109°
2026-05-06 17:58 41.32508 20.53906 32884 ft 495 kts 102°
2026-05-06 17:58 41.31755 20.58336 33212 ft 495 kts 102°
2026-05-06 17:59 41.30984 20.62787 33599 ft 494 kts 102°
2026-05-06 17:59 41.30201 20.67242 33955 ft 494 kts 102°
2026-05-06 17:59 41.29416 20.71679 34303 ft 493 kts 102°
2026-05-06 17:59 41.28631 20.76109 34636 ft 492 kts 102°
2026-05-06 18:00 41.27847 20.80526 34971 ft 491 kts 102°
2026-05-06 18:00 41.27064 20.84952 35088 ft 491 kts 102°
2026-05-06 18:00 41.25507 20.93763 35098 ft 489 kts 102°
2026-05-06 18:01 41.23949 21.02550 35078 ft 488 kts 102°
2026-05-06 18:01 41.22383 21.11328 35067 ft 488 kts 103°
2026-05-06 18:02 41.20805 21.20094 35044 ft 487 kts 102°
2026-05-06 18:02 41.19232 21.28842 35030 ft 487 kts 102°
2026-05-06 18:03 41.17642 21.37586 35030 ft 487 kts 102°
2026-05-06 18:03 41.16045 21.46331 35030 ft 487 kts 102°
2026-05-06 18:04 41.14454 21.55063 35031 ft 487 kts 102°
2026-05-06 18:04 41.12848 21.63796 35032 ft 488 kts 103°
2026-05-06 18:05 41.11244 21.72479 35034 ft 488 kts 103°
2026-05-06 18:05 41.09609 21.81270 35039 ft 488 kts 103°
2026-05-06 18:06 41.07719 21.89899 35041 ft 488 kts 112°
2026-05-06 18:06 41.04293 21.97605 35039 ft 486 kts 128°
2026-05-06 18:07 41.00228 22.04751 35042 ft 487 kts 128°
2026-05-06 18:07 40.96177 22.11855 35044 ft 487 kts 128°
2026-05-06 18:08 40.92101 22.18999 35060 ft 486 kts 128°
2026-05-06 18:08 40.88033 22.26117 35057 ft 484 kts 128°
2026-05-06 18:09 40.83963 22.33198 35046 ft 483 kts 128°
2026-05-06 18:09 40.79901 22.40249 35043 ft 482 kts 128°
2026-05-06 18:10 40.75836 22.47291 35039 ft 481 kts 127°
2026-05-06 18:10 40.71780 22.54309 35041 ft 481 kts 127°
2026-05-06 18:11 40.67730 22.61309 35043 ft 480 kts 128°
2026-05-06 18:11 40.63678 22.68292 35040 ft 480 kts 128°
2026-05-06 18:12 40.59624 22.75261 35036 ft 479 kts 128°
2026-05-06 18:12 40.55566 22.82218 35033 ft 479 kts 128°
2026-05-06 18:13 40.51515 22.89152 35031 ft 479 kts 128°
2026-05-06 18:13 40.47416 22.96053 35028 ft 479 kts 132°
2026-05-06 18:14 40.42404 23.01725 35024 ft 476 kts 149°
2026-05-06 18:14 40.36762 23.06201 34713 ft 477 kts 150°
2026-05-06 18:15 40.33930 23.08457 34472 ft 478 kts 150°
2026-05-06 18:15 40.31084 23.10728 34263 ft 479 kts 150°
2026-05-06 18:15 40.28238 23.13000 34002 ft 480 kts 150°
2026-05-06 18:15 40.25414 23.15250 33735 ft 481 kts 150°
2026-05-06 18:16 40.22548 23.17530 33465 ft 482 kts 150°
2026-05-06 18:16 40.19681 23.19804 33194 ft 482 kts 150°
2026-05-06 18:16 40.16809 23.22073 32926 ft 482 kts 150°
2026-05-06 18:16 40.13936 23.24338 32665 ft 483 kts 150°
2026-05-06 18:17 40.11051 23.26612 31914 ft 485 kts 150°
2026-05-06 18:17 40.08132 23.28912 30629 ft 496 kts 150°
2026-05-06 18:17 40.05165 23.31254 29811 ft 496 kts 150°
2026-05-06 18:17 40.02227 23.33576 29088 ft 491 kts 150°
2026-05-06 18:18 39.99324 23.35865 28352 ft 486 kts 150°
2026-05-06 18:18 39.96443 23.38129 27629 ft 481 kts 150°
2026-05-06 18:18 39.93589 23.40367 26926 ft 477 kts 150°
2026-05-06 18:18 39.90751 23.42588 26227 ft 474 kts 150°
2026-05-06 18:19 39.87933 23.44792 25524 ft 471 kts 150°
2026-05-06 18:19 39.85130 23.46986 24828 ft 469 kts 150°
2026-05-06 18:19 39.82343 23.49168 24144 ft 467 kts 150°
2026-05-06 18:19 39.79563 23.51344 23468 ft 464 kts 150°
2026-05-06 18:20 39.76812 23.53495 22816 ft 460 kts 150°
2026-05-06 18:20 39.74088 23.55625 22241 ft 454 kts 150°
2026-05-06 18:20 39.71401 23.57725 21645 ft 448 kts 150°
2026-05-06 18:20 39.68742 23.59798 21108 ft 443 kts 150°
2026-05-06 18:21 39.66112 23.61842 20564 ft 438 kts 150°
2026-05-06 18:21 39.63509 23.63860 20003 ft 434 kts 150°
2026-05-06 18:21 39.60931 23.65855 19442 ft 430 kts 150°
2026-05-06 18:21 39.58375 23.67837 18875 ft 428 kts 150°
2026-05-06 18:22 39.55827 23.69814 18276 ft 425 kts 150°
2026-05-06 18:22 39.53298 23.71772 17643 ft 422 kts 150°
2026-05-06 18:22 39.50783 23.73718 17049 ft 418 kts 150°
2026-05-06 18:22 39.48301 23.75639 16539 ft 413 kts 149°
2026-05-06 18:23 39.45839 23.77543 15966 ft 410 kts 149°
2026-05-06 18:23 39.43394 23.79432 15389 ft 408 kts 149°
2026-05-06 18:23 39.40980 23.81292 14981 ft 401 kts 149°
2026-05-06 18:23 39.38593 23.83128 14450 ft 398 kts 149°
2026-05-06 18:24 39.36219 23.84954 13961 ft 395 kts 149°
2026-05-06 18:24 39.33875 23.86760 13424 ft 391 kts 149°
2026-05-06 18:24 39.31550 23.88547 12882 ft 387 kts 149°
2026-05-06 18:24 39.29247 23.90315 12346 ft 383 kts 149°
2026-05-06 18:25 39.26972 23.92064 11811 ft 379 kts 149°
2026-05-06 18:25 39.24656 23.93624 11274 ft 373 kts 162°
2026-05-06 18:25 39.22150 23.93997 11074 ft 356 kts 187°
2026-05-06 18:25 39.19847 23.93128 10950 ft 337 kts 210°
2026-05-06 18:26 39.18075 23.91306 10824 ft 320 kts 232°
2026-05-06 18:26 39.16994 23.88899 10705 ft 304 kts 253°
2026-05-06 18:26 39.16636 23.86283 10506 ft 293 kts 272°
2026-05-06 18:26 39.16773 23.83675 10174 ft 290 kts 276°
2026-05-06 18:27 39.16932 23.81088 9795 ft 289 kts 275°
2026-05-06 18:27 39.17088 23.78512 9399 ft 288 kts 275°
2026-05-06 18:27 39.17241 23.75945 9007 ft 286 kts 275°
2026-05-06 18:27 39.17390 23.73393 8607 ft 285 kts 275°
2026-05-06 18:28 39.17538 23.70809 7867 ft 295 kts 274°
2026-05-06 18:28 39.17689 23.68163 7097 ft 305 kts 274°
2026-05-06 18:28 39.17865 23.65391 6290 ft 315 kts 278°
2026-05-06 18:28 39.18650 23.62750 5440 ft 323 kts 305°
2026-05-06 18:29 39.20387 23.60920 4770 ft 327 kts 335°
2026-05-06 18:29 39.22580 23.60317 4330 ft 322 kts 356°
2026-05-06 18:29 39.24794 23.60411 3889 ft 317 kts
2026-05-06 18:29 39.26974 23.60711 3501 ft 311 kts
2026-05-06 18:30 39.29005 23.60969 3461 ft 281 kts
2026-05-06 18:30 39.30860 23.61056 3381 ft 255 kts 352°
2026-05-06 18:30 39.32419 23.60192 2992 ft 242 kts 315°
2026-05-06 18:30 39.33172 23.58383 2579 ft 223 kts 275°
2026-05-06 18:31 39.32803 23.56609 2374 ft 196 kts 228°
2026-05-06 18:31 39.31825 23.55581 2259 ft 169 kts 208°
2026-05-06 18:31 39.30762 23.55137 2164 ft 155 kts 188°
2026-05-06 18:31 39.29749 23.54973 2079 ft 142 kts 186°
2026-05-06 18:32 39.28789 23.54830 1973 ft 137 kts 186°
2026-05-06 18:32 39.27868 23.54547 1873 ft 136 kts 196°
2026-05-06 18:32 39.26967 23.54153 1755 ft 139 kts 197°
2026-05-06 18:32 39.26047 23.53741 1639 ft 138 kts 197°
2026-05-06 18:33 39.25120 23.53489 1443 ft 136 kts 183°
2026-05-06 18:33 39.24183 23.53388 1169 ft 135 kts 192°
2026-05-06 18:33 39.23280 23.53059 985 ft 135 kts 195°
2026-05-06 18:33 39.22376 23.52704 855 ft 136 kts 195°
2026-05-06 18:34 39.21486 23.52314 740 ft 136 kts 200°
2026-05-06 18:34 39.20615 23.51828 673 ft 137 kts 202°
2026-05-06 18:34 39.19726 23.51384 453 ft 136 kts 203°
2026-05-06 18:34 39.18855 23.50926 226 ft 135 kts 201°
2026-05-06 18:35 39.18002 23.50460 46 ft 125 kts 188°
2026-05-06 18:35 39.17531 23.50355 58 ft 68 kts 138°
2026-05-06 18:35 39.17464 23.50358 33 ft 2 kts 130°
2026-05-06 18:35 39.17316 23.50174 30 ft 29 kts 231°
2026-05-06 18:36 39.17266 23.50153 25 ft 8 kts 191°
2026-05-06 18:36 39.17203 23.50134 22 ft 11 kts 194°
2026-05-06 18:36 39.17131 23.50100 21 ft 12 kts 201°
2026-05-06 18:36 39.17053 23.50043 19 ft 12 kts 206°
2026-05-06 18:37 39.17030 23.50062 17 ft 2 kts 46°
2026-05-06 18:37 39.17090 23.50079 21 ft 12 kts 13°
2026-05-06 18:37 39.17155 23.50101 21 ft 9 kts 20°
2026-05-06 18:37 39.17247 23.50149 23 ft 16 kts 20°
2026-05-06 18:38 39.17338 23.50190 27 ft 12 kts 20°
2026-05-06 18:38 39.17406 23.50221 31 ft 8 kts 19°
2026-05-06 18:38 39.17447 23.50240 33 ft 5 kts 19°
2026-05-06 18:38 39.17475 23.50252 34 ft 9 kts 19°
2026-05-06 18:39 39.17550 23.50251 35 ft 10 kts 330°
2026-05-06 18:39 39.17602 23.50209 35 ft 8 kts 356°
2026-05-06 18:39 39.17653 23.50228 37 ft 7 kts 20°
2026-05-06 18:40 39.17767 23.50262 41 ft 11 kts 15°
2026-05-06 18:40 39.17833 23.50291 42 ft 9 kts 20°
2026-05-06 18:40 39.17885 23.50314 43 ft 7 kts 19°
2026-05-06 18:40 39.17925 23.50319 42 ft 3 kts 318°
2026-05-06 18:41 39.17937 23.50301 47 ft 6 kts 306°
2026-05-06 18:41 39.17944 23.50284 48 ft 4 kts 294°
2026-05-06 18:41 39.17952 23.50256 49 ft 1 kts 289°
2026-05-06 18:41 39.17955 23.50245 52 ft 0 kts 288°
2026-05-06 18:42 39.17955 23.50243 53 ft 0 kts 288°